Waarnemingen

Advertentie
Mijn weer
Trier-Petrisberg, Duitsland (10609): temperatuur & dauwpunt: 16.02.2017 11:00:00 - 22.02.2017 11:00:00 (CET)Trier-Petrisberg, Duitsland (10609): temperatuur 5cm & temperatuur -5cm: 16.02.2017 11:00:00 - 22.02.2017 11:00:00 (CET)Trier-Petrisberg, Duitsland (10609): temperatuur -20cm & temperatuur -100cm: 16.02.2017 11:00:00 - 22.02.2017 11:00:00 (CET)Trier-Petrisberg, Duitsland (10609): windsnelheid & windstoten: 16.02.2017 11:00:00 - 22.02.2017 11:00:00 (CET)Trier-Petrisberg, Duitsland (10609): windrichting: 16.02.2017 11:00:00 - 22.02.2017 11:00:00 (CET)Trier-Petrisberg, Duitsland (10609): luchtdruk: 16.02.2017 11:00:00 - 22.02.2017 11:00:00 (CET)Trier-Petrisberg, Duitsland (10609): zicht: 16.02.2017 11:00:00 - 22.02.2017 11:00:00 (CET)Trier-Petrisberg, Duitsland (10609): Zonneschijnduur: 16.02.2017 11:00:00 - 22.02.2017 11:00:00 (CET)Trier-Petrisberg, Duitsland (10609): neerslag: 16.02.2017 11:00:00 - 22.02.2017 11:00:00 (CET)
Datum & Tijd tt [°C] td [°C] tt 5cm [°C] tt -5cm [°C] tt -20cm [°C] tt -100cm [°C] ff [km/u] ff [kn] fx [km/u] fx [kn] dd ppp [hPa] vv [km] sd [min] rr [mm]
22.02.2017 11:00:00 8,2 7,4 7,9 7,7 7,3 5,7 27 15 51 28 WZW 1013,9 6 0 0,7
22.02.2017 10:00:00 8,4 7,3 7,9 7,7 7,3 5,7 29 15 46 25 WZW 1013,9 14 0 0,0
22.02.2017 09:00:00 8,6 7,2 7,9 7,6 7,3 5,7 29 16 52 28 ZW 1013,8 22 0 0,0
22.02.2017 08:00:00 8,7 7,2 7,8 7,7 7,3 5,7 28 15 48 26 WZW 1013,5 33 0 0,1
22.02.2017 07:00:00 8,5 8,0 8,0 7,8 7,4 5,7 24 13 44 24 WZW 1013,6 7 0 0,2
22.02.2017 06:00:00 9,4 7,1 8,5 8,0 7,4 5,6 32 17 55 30 WZW 1013,7 28 0 0,0
22.02.2017 05:00:00 9,3 8,0 8,6 8,1 7,4 5,6 31 17 54 29 WZW 1014,2 13 0 0,0
22.02.2017 04:00:00 9,6 8,7 9,0 8,2 7,4 5,6 26 14 47 26 WZW 1014,5 6 0 0,0
22.02.2017 03:00:00 9,8 8,8 9,1 8,3 7,4 5,6 26 14 48 26 ZW 1014,9 13 0 0,1
22.02.2017 02:00:00 9,7 8,9 9,1 8,3 7,4 5,6 30 16 49 27 ZW 1015,4 9 0 0,3
22.02.2017 01:00:00 9,7 9,1 9,2 8,3 7,4 5,5 29 15 42 23 ZW 1015,9 6 0 0,3
22.02.2017 00:00:00 9,7 9,1 9,1 8,3 7,4 5,5 29 15 44 24 ZW 1016,4 6 0 0,1
21.02.2017 23:00:00 9,5 8,9 9,0 8,3 7,5 5,5 24 13 42 23 ZW 1016,5 8 0 0,3
21.02.2017 22:00:00 9,6 8,5 9,1 8,3 7,5 5,5 20 11 34 19 ZW 1017,0 18 0 0,0
21.02.2017 21:00:00 9,3 8,6 8,9 8,4 7,5 5,5 23 12 35 19 ZW 1017,5 14 0 0,0
21.02.2017 20:00:00 9,3 8,2 9,0 8,6 7,6 5,4 21 11 33 18 ZW 1017,8 28 0 0,0
21.02.2017 19:00:00 9,4 8,1 9,0 8,8 7,6 5,4 22 12 36 19 ZW 1018,2 23 0 0,0
21.02.2017 18:00:00 9,7 7,8 9,3 9,2 7,6 5,4 21 11 37 20 ZW 1017,9 52 0 0,0
21.02.2017 17:00:00 10,3 7,7 9,8 9,7 7,5 5,4 23 12 37 20 WZW 1017,6 70 0 0,0
21.02.2017 16:00:00 11,2 7,9 10,8 10,4 7,3 5,4 22 12 37 20 WZW 1017,4 70 1 0,0
21.02.2017 15:00:00 10,6 8,9 10,4 10,6 7,1 5,4 21 11 40 22 W 1017,6 23 0 0,0
21.02.2017 14:00:00 12,0 8,3 11,9 10,9 6,9 5,4 20 11 42 23 W 1017,3 70 0 0,0
21.02.2017 13:00:00 11,5 8,9 11,8 10,4 6,7 5,3 22 12 38 20 WZW 1017,7 70 1 0,1
21.02.2017 12:00:00 10,1 9,7 10,6 9,4 6,5 5,3 19 10 32 17 WZW 1018,1 3,3 0 0,1
21.02.2017 11:00:00 10,3 9,4 10,4 8,8 6,4 5,3 16 9 29 16 W 1018,0 9 0 0,0
21.02.2017 10:00:00 10,0 8,9 9,8 8,2 6,3 5,3 18 10 31 17 W 1017,6 56 0 0,0
21.02.2017 09:00:00 9,8 9,0 9,3 7,7 6,2 5,3 18 10 30 16 WZW 1017,5 64 0 0,0
21.02.2017 08:00:00 9,7 9,1 9,0 7,5 6,2 5,3 17 9 32 18 WZW 1017,0 14 0 0,0
21.02.2017 07:00:00 9,7 9,4 9,1 7,5 6,1 5,3 18 10 28 15 WZW 1016,4 26 0 0,1
21.02.2017 06:00:00 9,4 9,4 9,1 7,4 6,1 5,3 17 9 32 17 WZW 1016,5 2,1 0 0,1
21.02.2017 05:00:00 9,6 9,3 9,1 7,4 6,0 5,2 19 10 35 19 WZW 1016,4 4,6 0 0,0
21.02.2017 04:00:00 9,4 9,1 8,9 7,2 6,0 5,2 18 10 32 17 WZW 1016,8 8 0 0,0
21.02.2017 03:00:00 9,1 9,0 8,7 7,1 5,9 5,2 23 12 34 19 ZW 1017,3 5 0 0,0
21.02.2017 02:00:00 8,9 8,8 8,6 7,0 5,9 5,2 21 11 36 20 ZW 1018,0 4,3 0 0,0
21.02.2017 01:00:00 8,7 8,7 8,4 6,9 5,9 5,2 22 12 40 22 ZW 1018,4 3,0 0 0,0
21.02.2017 00:00:00 8,6 8,5 8,3 6,8 5,8 5,2 22 12 36 19 ZW 1018,6 3,6 0 0,0
20.02.2017 23:00:00 8,6 8,3 8,1 6,8 5,8 5,2 22 12 32 17 ZW 1018,8 6 0 0,0
20.02.2017 22:00:00 8,4 8,2 7,9 6,7 5,8 5,2 22 12 32 17 ZZW 1019,2 7 0 0,1
20.02.2017 21:00:00 8,0 8,0 7,8 6,6 5,7 5,2 20 11 35 19 ZW 1019,3 3,1 0 0,0
20.02.2017 20:00:00 8,0 7,7 7,7 6,6 5,7 5,2 27 14 40 22 ZW 1019,2 5 0 0,0
20.02.2017 19:00:00 7,9 7,8 7,6 6,6 5,7 5,2 24 13 38 21 ZW 1019,4 2,0 0 0,2
20.02.2017 18:00:00 7,6 7,6 7,4 6,6 5,6 5,2 22 12 36 19 ZW 1019,3 2,2 0 0,7
20.02.2017 17:00:00 7,5 7,5 7,3 6,6 5,6 5,2 27 14 39 21 ZW 1019,6 1,3 0 0,4
20.02.2017 16:00:00 7,4 7,3 7,3 6,7 5,5 5,1 22 12 37 20 ZW 1019,8 2,2 0 0,2
20.02.2017 15:00:00 7,2 7,0 7,3 6,6 5,4 5,1 24 13 40 22 ZW 1020,2 3,0 0 0,0
20.02.2017 14:00:00 7,2 6,7 7,3 6,5 5,3 5,1 27 14 41 22 ZW 1021,0 9 0 0,0
20.02.2017 13:00:00 7,3 5,9 7,5 6,4 5,3 5,1 31 17 46 25 ZW 1021,5 11 0 0,0
20.02.2017 12:00:00 7,2 5,7 7,5 6,2 5,2 5,1 28 15 45 24 ZW 1022,3 9 0 0,0
20.02.2017 11:00:00 7,4 5,6 7,7 6,1 5,1 5,1 24 13 38 20 ZW 1022,4 9 0 0,0
20.02.2017 10:00:00 6,7 5,8 6,7 5,5 5,1 5,1 21 12 37 20 ZW 1022,7 5 0 0,0
20.02.2017 09:00:00 6,5 5,4 6,3 5,2 5,0 5,1 21 11 29 16 ZW 1022,8 6 0 0,0
20.02.2017 08:00:00 6,2 5,1 5,9 5,0 5,0 5,1 22 12 29 16 ZW 1022,5 8 0 0,0
20.02.2017 07:00:00 6,1 5,0 5,7 4,9 5,1 5,1 15 8 25 13 ZW 1022,9 8 0 0,0
20.02.2017 06:00:00 6,1 4,8 5,7 4,9 5,1 5,1 14 8 22 12 ZW 1022,8 8 0 0,0
20.02.2017 05:00:00 6,1 4,4 5,8 4,8 5,1 5,1 16 9 21 12 ZZW 1022,9 10 0 0,0
20.02.2017 04:00:00 5,9 4,1 5,3 4,8 5,1 5,1 10 6 17 9 ZW 1023,0 9 0 0,0
20.02.2017 03:00:00 6,0 4,0 5,0 4,8 5,2 5,1 10 6 14 7 ZZW 1023,8 9 0 0,0
20.02.2017 02:00:00 6,3 4,1 5,4 4,9 5,2 5,0 11 6 15 8 ZW 1024,1 9 0 0,0
20.02.2017 01:00:00 6,2 4,0 5,2 5,0 5,2 5,0 9 5 16 9 ZZW 1024,0 9 0 0,0
20.02.2017 00:00:00 6,6 4,1 5,6 5,1 5,3 5,0 11 6 16 9 ZW 1023,9 10 0 0,0
19.02.2017 23:00:00 6,3 4,3 5,4 5,2 5,3 5,0 9 5 16 8 ZW 1024,0 9 0 0,0
19.02.2017 22:00:00 6,5 3,9 5,6 5,4 5,4 5,0 8 5 27 15 ZW 1023,9 10 0 0,0
19.02.2017 21:00:00 7,0 3,4 6,0 5,6 5,4 5,0 15 8 25 14 WZW 1023,5 13 0 0,0
19.02.2017 20:00:00 7,3 2,9 6,4 5,7 5,4 5,0 11 6 25 14 WZW 1023,2 15 0 0,0
19.02.2017 19:00:00 7,5 2,9 6,6 5,9 5,4 5,1 16 9 28 15 ZW 1023,0 14 0 0,0
19.02.2017 18:00:00 8,1 3,0 7,1 6,9 5,3 5,1 16 9 31 17 ZW 1022,6 14 0 0,0
19.02.2017 17:00:00 8,6 2,3 8,4 7,8 5,1 5,1 19 10 31 17 WZW 1022,4 17 0 0,0
19.02.2017 16:00:00 8,8 3,2 9,3 8,5 4,7 5,1 18 10 30 16 ZW 1022,7 13 1 0,0
19.02.2017 15:00:00 8,9 2,7 10,4 9,8 4,3 5,1 20 11 31 17 ZW 1022,9 14 49 0,0
19.02.2017 14:00:00 7,8 2,9 8,6 8,2 3,8 5,1 13 7 23 12 ZW 1023,4 12 19 0,0
19.02.2017 13:00:00 5,8 2,3 8,7 7,8 3,5 5,1 10 6 15 8 ZW 1024,7 9 60 0,0
19.02.2017 12:00:00 1,9 1,6 4,2 4,6 3,3 5,1 5 3 8 5 ZW 1025,9 2,3 49 0,0
19.02.2017 11:00:00 -1,7 -1,8 -0,4 1,7 3,3 5,1 5 3 9 5 ZZW 1026,5 0,1 3 0,0
19.02.2017 10:00:00 -2,1 -2,1 -1,2 1,0 3,4 5,1 4 2 6 4 ZW 1026,9 0,1 0 0,0
19.02.2017 09:00:00 -2,9 -2,9 -2,3 0,9 3,5 5,1 3 2 9 5 ZZO 1027,3 0,1 0 0,0
19.02.2017 08:00:00 -2,6 -2,6 -2,0 0,9 3,6 5,1 0 0 6 3 N 1026,7 0,1 0 0,0
19.02.2017 07:00:00 -2,7 -2,7 -2,4 0,9 3,7 5,1 3 2 9 5 WNW 1026,1 0,1 0 0,0
19.02.2017 06:00:00 -2,4 -2,4 -2,3 0,9 3,8 5,1 6 3 10 5 NNW 1026,6 0,1 0 0,0
19.02.2017 05:00:00 -2,6 -2,6 -2,8 0,9 4,0 5,1 3 2 7 4 NNW 1026,5 0,2 0 0,0
19.02.2017 04:00:00 -1,9 -1,9 -3,3 1,0 4,1 5,0 1 1 8 4 N 1026,7 0,2 0 0,0
19.02.2017 03:00:00 -1,3 -1,3 -4,0 1,1 4,3 5,0 3 2 7 4 N 1027,2 4,2 0 0,0
19.02.2017 02:00:00 -0,9 -1,1 -3,6 1,3 4,5 5,0 5 3 13 7 NO 1027,5 6 0 0,0
19.02.2017 01:00:00 0,3 -0,3 -3,0 1,5 4,7 5,0 9 5 11 6 NNO 1027,3 10 0 0,0
19.02.2017 00:00:00 0,7 -0,6 -2,8 1,8 4,9 5,0 6 3 10 5 O 1027,2 9 0 0,0
18.02.2017 23:00:00 2,1 0,2 -1,0 2,1 5,2 5,0 7 4 9 5 N 1027,3 15 0 0,0
18.02.2017 22:00:00 2,8 0,0 -1,7 2,5 5,4 5,0 5 3 8 5 ZZO 1027,2 16 0 0,0
18.02.2017 21:00:00 3,7 0,2 -1,0 3,2 5,7 5,0 4 2 8 5 Z 1027,2 19 0 0,0
18.02.2017 20:00:00 4,3 1,0 -0,5 4,1 5,8 5,0 6 3 10 5 Z 1027,3 19 0 0,0
18.02.2017 19:00:00 4,6 1,0 1,2 5,2 5,9 5,0 8 4 16 9 ONO 1027,0 21 0 0,0
18.02.2017 18:00:00 6,1 0,8 3,2 6,7 5,9 5,0 9 5 13 7 ONO 1027,0 24 40 0,0
18.02.2017 17:00:00 8,3 1,6 9,5 7,8 5,7 5,0 6 3 13 7 ONO 1026,5 24 36 0,0
18.02.2017 16:00:00 9,0 1,1 10,6 8,9 5,5 5,0 4 2 13 7 ONO 1026,5 25 24 0,0
18.02.2017 15:00:00 7,8 2,4 9,0 7,6 5,4 4,9 5 3 10 6 N 1027,0 20 0 0,0
18.02.2017 14:00:00 7,4 3,1 8,0 7,6 5,1 4,9 6 3 11 6 NNW 1027,2 14 0 0,0
18.02.2017 13:00:00 7,5 3,5 8,6 7,6 4,9 4,9 6 4 9 5 NNO 1027,8 11 0 0,0
18.02.2017 12:00:00 7,0 5,3 7,9 7,2 4,7 4,9 4 2 10 5 NNO 1028,5 7 0 0,0
18.02.2017 11:00:00 5,4 4,8 6,4 5,7 4,6 4,9 7 4 10 5 N 1028,7 4,9 0 0,0
18.02.2017 10:00:00 4,3 4,3 4,8 4,5 4,6 4,9 4 2 6 3 N 1028,7 0,4 0 0,0
18.02.2017 09:00:00 3,8 3,8 3,9 3,9 4,6 4,9 4 2 6 4 NNO 1028,8 0,2 0 0,0
18.02.2017 08:00:00 3,4 3,4 3,1 3,7 4,7 4,9 4 2 8 4 NNO 1028,7 0,4 0 0,0
18.02.2017 07:00:00 3,6 3,6 2,9 3,7 4,8 4,9 0 0 5 3 ONO 1028,2 1,7 0 0,0
18.02.2017 06:00:00 3,6 3,6 2,8 3,7 4,9 4,9 4 2 8 5 ZZO 1028,2 2,2 0 0,0
18.02.2017 05:00:00 3,3 3,3 2,7 3,6 5,0 4,8 5 3 8 5 OZO 1028,3 0,2 0 0,0
18.02.2017 04:00:00 3,9 3,9 1,5 3,8 5,1 4,8 6 3 8 4 NW 1028,2 1,9 0 0,0
18.02.2017 03:00:00 4,7 4,4 3,9 4,6 5,1 4,8 5 3 7 4 Z 1028,6 5 0 0,0
18.02.2017 02:00:00 5,2 4,6 4,6 4,7 5,2 4,8 7 4 9 5 WZW 1028,6 6 0 0,0
18.02.2017 01:00:00 5,5 4,6 4,4 4,8 5,2 4,8 2 1 6 3 ZO 1028,8 7 0 0,0
18.02.2017 00:00:00 5,2 4,7 4,4 4,9 5,3 4,8 5 3 8 4 ZZO 1028,8 4,8 0 0,0
17.02.2017 23:00:00 5,7 5,0 4,7 5,1 5,3 4,8 3 2 9 5 ZW 1028,8 8 0 0,0
17.02.2017 22:00:00 6,0 4,8 4,8 5,3 5,4 4,8 4 2 11 6 WZW 1028,5 11 0 0,0
17.02.2017 21:00:00 6,1 5,2 5,5 5,5 5,4 4,8 7 4 13 7 WZW 1028,3 10 0 0,0
17.02.2017 20:00:00 6,4 5,4 5,5 5,7 5,5 4,7 5 3 10 5 W 1028,0 13 0 0,0
17.02.2017 19:00:00 6,6 5,2 5,8 6,0 5,5 4,7 7 4 11 6 W 1027,8 17 0 0,0
17.02.2017 18:00:00 6,8 4,6 5,6 6,4 5,4 4,7 7 4 16 9 W 1027,3 31 0 0,1
17.02.2017 17:00:00 7,2 5,6 6,7 6,9 5,3 4,7 8 4 18 10 W 1027,1 15 0 0,4
17.02.2017 16:00:00 7,4 5,4 7,1 7,2 5,2 4,7 14 7 24 13 W 1027,1 5 0 0,0
17.02.2017 15:00:00 7,4 4,7 7,3 7,2 5,0 4,7 16 9 27 15 W 1027,1 26 0 0,1
17.02.2017 14:00:00 7,7 5,0 7,6 7,1 4,8 4,7 7 4 21 11 W 1027,4 8 0 0,0
17.02.2017 13:00:00 7,5 4,8 8,5 7,4 4,6 4,7 13 7 21 11 ZW 1027,5 16 5 0,0
17.02.2017 12:00:00 6,4 4,0 7,3 6,3 4,5 4,7 13 7 25 13 WZW 1028,0 12 0 0,0
17.02.2017 11:00:00 5,7 4,2 6,1 5,4 4,4 4,7 15 8 23 12 ZW 1027,9 10 0 0,0
17.02.2017 10:00:00 5,0 4,4 5,5 4,7 4,3 4,7 10 6 23 12 ZW 1028,1 6 0 0,0
17.02.2017 09:00:00 3,8 3,7 3,8 3,6 4,4 4,7 13 7 22 12 W 1027,9 4,5 0 0,0
17.02.2017 08:00:00 3,9 3,9 3,5 3,7 4,4 4,7 8 4 11 6 WZW 1028,1 0,1 0 0,0
17.02.2017 07:00:00 3,9 3,9 3,7 3,6 4,5 4,6 8 4 11 6 W 1027,7 0,1 0 0,0
17.02.2017 06:00:00 4,9 4,9 4,0 4,0 4,5 4,6 6 3 10 5 WZW 1027,8 0,2 0 0,0
17.02.2017 05:00:00 4,9 4,9 4,0 4,2 4,6 4,6 6 4 11 6 ZW 1027,9 0,1 0 0,0
17.02.2017 04:00:00 5,1 5,1 4,6 4,2 4,6 4,6 9 5 13 7 WZW 1028,1 0,2 0 0,0
17.02.2017 03:00:00 5,5 5,5 4,4 4,4 4,7 4,6 6 4 10 5 ZW 1028,2 1,8 0 0,0
17.02.2017 02:00:00 5,6 5,5 3,9 4,4 4,7 4,6 8 4 13 7 ZW 1028,3 2,5 0 0,0
17.02.2017 01:00:00 6,0 5,8 5,0 4,7 4,7 4,6 10 5 16 8 ZW 1028,8 3,2 0 0,0
17.02.2017 00:00:00 6,3 6,0 5,6 5,0 4,7 4,6 10 5 18 10 WZW 1029,2 4,4 0 0,0
16.02.2017 23:00:00 6,5 6,4 6,2 5,3 4,7 4,6 5 3 13 7 WZW 1029,5 2,3 0 0,0
16.02.2017 22:00:00 6,5 6,5 6,1 5,3 4,7 4,6 5 3 16 9 ZW 1029,7 0,6 0 0,0
16.02.2017 21:00:00 6,6 6,6 6,4 5,3 4,7 4,6 7 4 16 9 W 1029,5 0,6 0 0,0
16.02.2017 20:00:00 6,7 6,7 6,5 5,3 4,6 4,6 10 6 18 10 ZW 1029,3 1,3 0 0,0
16.02.2017 19:00:00 6,6 6,6 6,3 5,2 4,6 4,6 9 5 12 7 W 1030,0 0,5 0 0,0
16.02.2017 18:00:00 6,3 6,3 5,9 5,5 4,6 4,6 9 5 12 7 ZZW 1029,9 0,5 0 0,1
16.02.2017 17:00:00 6,6 6,6 6,3 5,8 4,5 4,6 4 2 6 4 WZW 1029,9 1,2 0 0,5
16.02.2017 16:00:00 6,5 6,4 6,6 6,0 4,3 4,6 6 3 8 4 W 1030,4 1,0 0 0,7
16.02.2017 15:00:00 6,7 6,4 6,7 5,9 4,2 4,6 4 2 7 4 Z 1030,8 1,6 0 0,8
16.02.2017 14:00:00 6,4 6,3 6,5 5,8 4,0 4,6 6 3 18 10 WZW 1031,6 1,2 0 2,1
16.02.2017 13:00:00 6,2 5,7 6,5 6,2 3,7 4,6 6 4 14 8 NW 1031,9 3,7 0 0,7
16.02.2017 12:00:00 6,6 3,0 8,2 6,6 3,4 4,5 6 3 9 5 NW 1032,4 8 19 0,0
16.02.2017 11:00:00 5,1 2,9 6,7 5,4 3,2 4,5 4 2 7 4 NNW 1032,8 7 52 0,0

tt = temperatuur
td = dauwpunt
tt 5cm = temperatuur 5cm
tt -5cm = temperatuur -5cm
tt -20cm = temperatuur -20cm
tt -100cm = temperatuur -100cm
ff = windsnelheid
fx = windstoten
dd = windrichting
ppp = luchtdruk
vv = zicht
sd = Zonneschijnduur
rr = neerslag

Weerstations in de omgeving